Dati Storici

Data ora Umidita' aria (%) Temperatura aria (°C) Rad globale (W/m²) Gonioanemometro (°) Tacoanemometro (m/s) Pioggia (mm)
05-06-2020 18:10 73.5 % 21.53 -73.613 2.432 0 0
05-06-2020 18:00 70.4 % 21.675 -76.262 2.093 0 0
05-06-2020 17:50 69.3 % 21.825 -82.619 2.312 0 0
05-06-2020 17:40 66.6 % 22.196 -72.725 1.568 0 0
05-06-2020 17:30 65.8 % 22.351 -76.433 1.839 0 0
05-06-2020 17:20 65.6 % 22.422 -77.097 2.295 0 0
05-06-2020 17:10 67.8 % 23.179 -73.98 0.564 0 0
05-06-2020 17:00 68.7 % 22.318 -75.677 2.015 0 0
05-06-2020 16:50 68.5 % 21.786 -77.393 1.865 0 0
05-06-2020 16:40 63.9 % 22.283 -75.836 0.986 0 0
05-06-2020 16:30 58.5 % 22.526 -74.416 0.808 0 0
05-06-2020 16:20 57.5 % 22.883 -77.066 2.163 0 0
05-06-2020 16:10 57 % 22.996 -73.42 2.297 0 0
05-06-2020 16:00 57.5 % 24.053 -75.508 1.32 0 0
05-06-2020 15:50 57.8 % 23.372 -78.066 1.154 0 0
05-06-2020 15:40 57.7 % 23.579 -79.367 2.49 0 0
05-06-2020 15:30 58.7 % 24.313 -79.238 1.363 0 0
05-06-2020 15:20 58.5 % 23.551 -74.71 2.155 0 0
05-06-2020 15:10 58.9 % 24.037 -76.907 3.112 0 0
05-06-2020 15:00 60.6 % 23.643 -78.907 1.525 0 0

I dati sono presentati in modo automatico a scopo informativo. In seguito a verifica i dati possono subire modifiche o essere invalidati e non riportati negli archivi definitivi.